Regional Weather Roundup
Issued by NWS

Home | Current Version | Previous Version | Text Only | Print | Product List | Glossary Off
Versions: 1 2 3 4 5 6 7 8 9 10 11 12 13 14 15 16 17 18 19 20 21 22 23 24 25 26 27 28 29 30 31 32 33 34 35 36 37 38 39 40 41 42 43 44 45 46 47 48 49 50

000
ASUS43 KFSD 190610
RWRSD

WEATHER ROUNDUP FOR SOUTH DAKOTA
NATIONAL WEATHER SERVICE SIOUX FALLS SD
1200 AM CST MON FEB 19 2018

NOTE: "FAIR" INDICATES FEW OR NO CLOUDS BELOW 12,000 FEET WITH NO
SIGNIFICANT WEATHER AND/OR OBSTRUCTIONS TO VISIBILITY.


SDZ001>005-009-010-012>017-190700-
NORTHWEST AND NORTH CENTRAL SOUTH DAKOTA

CITY           SKY/WX    TMP DP  RH WIND       PRES   REMARKS
BUFFALO          N/A      5   0  79 NE14      29.92S WCI -12
FAITH            N/A      5   3  91 N15       29.99F WCI -13
MOBRIDGE       LGT SNOW  10   3  73 N16G23    30.03R WCI  -7
$$

SDZ012>016-024>037-041>051-057-063-072>074-190700-
SOUTHWEST AND SOUTH CENTRAL SOUTH DAKOTA

CITY           SKY/WX    TMP DP  RH WIND       PRES   REMARKS
RAPID CTY ARPT LGT SNOW   4   1  88 N20       29.93R FOG     WCI -17
PIERRE         LGT SNOW  10   7  87 N22       29.98R FOG     WCI -10
CUSTER         LGT SNOW   2  -3  80 N8        29.68R WCI -12
ELLSWORTH AFB  CLOUDY     5   1  85 N18       29.92  BLWGSNOWWCI -15
PHILIP         LGT SNOW   9   5  84 N24       29.93F FOG     WCI -12
PINE RIDGE     LGT SNOW   8   3  80 N14G22    29.89R WCI  -8
SPEARFISH      LGT SNOW   3   0  85 W5        29.92R WCI  -6
WINNER         FLURRIES  15   9  76 N26       29.89R WCI  -4
$$

SDZ004>011-016>023-039-040-190700-
NORTHEAST SOUTH DAKOTA

CITY           SKY/WX    TMP DP  RH WIND       PRES   REMARKS
ABERDEEN       CLOUDY    11   4  73 N23       30.02S WCI  -9
WATERTOWN      CLOUDY    11   7  84 N23G30    29.85S WCI  -9
BROOKINGS      FLURRIES  14  10  84 N21G28    29.77F WCI  -4
SISSETON         N/A     12   6  77 N21       29.97R WCI  -7
$$

SDZ017-020-022-023-036>040-048>070-190700-
SOUTHEAST SOUTH DAKOTA

CITY           SKY/WX    TMP DP  RH WIND       PRES   REMARKS
SIOUX FALLS    CLOUDY    19  14  81 N16       29.76S WCI   4
HURON          MOCLDY    12   7  80 N28G35    29.89F WCI  -9
CHAMBERLAIN    CLOUDY    14   9  81 N23G31    29.85F WCI  -5
MITCHELL       MOCLDY    15  10  80 N23G33    29.85R WCI  -3
YANKTON        CLOUDY    23  18  81 N22       29.78R WCI   8
$$

ABBREVIATIONS USED IN REMARKS
   TC - TEMPERATURE IN CELSIUS
  WCI - WIND CHILL INDEX
   HX - HEAT INDEX
  VSB - VISIBILITY




USA.gov is the U.S. government's official web portal to all federal, state and local government web resources and services.